Goodland, KS

12:42 AM MST on December 14, 2019 (GMT -0700)
Renner-Goodland Municipal

Weather History for KGLD - September, 2019

Change the Weather History Date:

Saturday, September 21, 2019

  Actual Average Record
Temperature  
Mean Temperature 68 °F 62 °F  
Max Temperature 83 °F 77 °F 97 °F (2005)
Min Temperature 52 °F 48 °F 26 °F (1983)
Degree Days  
Heating Degree Days 0 5  
Month to date heating degree days 2 53  
Since 1 July heating degree days 2 65  
Cooling Degree Days 3 2  
Month to date cooling degree days 173 88  
Year to date cooling degree days 1019 921  
Growing Degree Days 17 (Base 50)    
Moisture  
Dew Point 47 °F    
Average Humidity 61    
Maximum Humidity 93    
Minimum Humidity 28    
Precipitation  
Precipitation 0.29 in 0.04 in 0.93 in (1941)
Month to date precipitation 0.65 0.87  
Year to date precipitation 21.51 16.77  
Snow  
Snow 0.00 in 0.00 in - ()
Month to date snowfall 0.0 0.2  
Since 1 July snowfall 0.0 0.2  
Since 1 September snowfall 0.0 0.2  
Snow Depth 0.00 in    
Sea Level Pressure  
Sea Level Pressure 29.81 in    
Wind  
Wind Speed 12 mph (NNE)    
Max Wind Speed 28 mph    
Max Gust Speed 41 mph    
Visibility 10 miles    
Events Rain    
T = Trace of Precipitation, MM = Missing Value Source: NWS Daily Summary

Daily Weather History Graph

Daily Weather History Graph

Search for Another Location

Airport or City:

Astronomy

Sep. 21, 2019 Rise Set
Actual Time 6:33 AM MDT 6:45 PM MDT
Civil Twilight 6:06 AM MDT 7:12 PM MDT
Nautical Twilight 5:35 AM MDT 7:43 PM MDT
Astronomical Twilight 5:03 AM MDT 8:15 PM MDT
Moon 11:27 PM MDT (9/21) 1:39 PM MDT (9/21)
Length of Visible Light 13h 05m
Length of Day
12h 12m
Waning Gibbous, 54% of the Moon is Illuminated
Sep 21
Waning Gibbous
Sep 21
Last Quarter
Sep 28
New
Oct 5
First Quarter
Oct 13
Full

Hourly Weather History & Observations

Time (MDT) Temp. Dew Point Humidity Pressure Visibility Wind Dir Wind Speed Gust Speed Precip Events Conditions
12:53 AM 66.9 °F 64.9 °F 93% 29.68 in 10.0 mi South 16.1 mph - N/A   Clear
1:53 AM 66.0 °F 64.0 °F 93% 29.71 in 10.0 mi SSW 15.0 mph - N/A   Clear
2:53 AM 64.0 °F 54.0 °F 70% 29.72 in 10.0 mi West 12.7 mph - N/A   Clear
3:53 AM 60.1 °F 50.0 °F 69% 29.74 in 10.0 mi West 10.4 mph - N/A   Clear
4:53 AM 57.0 °F 48.0 °F 72% 29.78 in 10.0 mi West 9.2 mph - N/A   Clear
5:53 AM 54.0 °F 48.0 °F 80% 29.81 in 10.0 mi West 6.9 mph - N/A   Clear
6:53 AM 53.1 °F 48.0 °F 83% 29.83 in 10.0 mi West 9.2 mph - N/A   Clear
7:53 AM 60.1 °F 48.9 °F 67% 29.86 in 10.0 mi WNW 11.5 mph - N/A   Clear
8:53 AM 66.0 °F 50.0 °F 56% 29.86 in 10.0 mi NW 12.7 mph - N/A   Clear
9:53 AM 70.0 °F 50.0 °F 49% 29.87 in 10.0 mi North 10.4 mph - N/A   Clear
11:53 AM 77.0 °F 50.0 °F 39% 29.84 in 10.0 mi North 12.7 mph - N/A   Clear
12:53 PM 80.1 °F 48.0 °F 32% 29.82 in 10.0 mi NE 13.8 mph 20.7 mph N/A   Clear
1:53 PM 81.0 °F 44.1 °F 27% 29.81 in 10.0 mi ENE 10.4 mph 23.0 mph N/A   Clear
2:53 PM 81.0 °F 45.0 °F 28% 29.80 in 10.0 mi East 12.7 mph 19.6 mph N/A   Clear
3:53 PM 82.0 °F 46.0 °F 28% 29.79 in 10.0 mi East 10.4 mph 18.4 mph N/A   Clear
4:53 PM 82.0 °F 46.0 °F 28% 29.78 in 10.0 mi East 13.8 mph 25.3 mph N/A   Clear
5:53 PM 79.0 °F 46.0 °F 31% 29.79 in 10.0 mi ENE 15.0 mph - N/A   Clear
6:53 PM 69.1 °F 45.0 °F 42% 29.80 in 10.0 mi NE 9.2 mph - N/A   Clear
7:53 PM 64.9 °F 41.0 °F 42% 29.78 in 10.0 mi NE 12.7 mph - N/A   Clear
8:53 PM 63.0 °F 37.9 °F 40% 29.80 in 10.0 mi ENE 9.2 mph - N/A   Clear
9:53 PM 64.0 °F 39.9 °F 41% 29.81 in 10.0 mi East 8.1 mph - N/A   Mostly Cloudy
10:53 PM 64.0 °F 39.9 °F 41% 29.83 in 10.0 mi NNE 18.4 mph 25.3 mph N/A   Mostly Cloudy
11:00 PM 64.9 °F 39.0 °F 39% 29.94 in 10.0 mi North 17.3 mph 25.3 mph N/A   Overcast
11:49 PM 59.0 °F 44.6 °F 59% 29.95 in 10.0 mi North 23.0 mph 39.1 mph N/A   Overcast
11:53 PM 59.0 °F 45.0 °F 60% 29.86 in 10.0 mi North 25.3 mph 34.5 mph 0.00 in Rain Light Rain